DW9584 Weather Reports


time (UTC)temp
C
wind
direction
speed
KPH
gust
KPH
rain 1hr
cm
rain 24hr
cm
rain mn
cm
humidity
%
barometer
mb
20260507150019 13 26 0.0 6.4 0.00 0.66 0.46 66 1012.1
20260507144528 13 77 1.6 11.3 0.00 0.66 0.46 68 1012.2
20260507143018 12 199 1.6 4.8 0.00 0.66 0.46 72 1012.3
20260507141514 12 359 1.6 6.4 0.00 0.66 0.46 77 1012.4
20260507140037 11 156 0.0 6.4 0.00 0.66 0.46 80 1012.5
20260507134524 11 314 0.0 4.8 0.00 0.66 0.46 82 1012.5
20260507133024 11 169 0.0 4.8 0.00 0.66 0.46 85 1012.5
20260507131541 11 27 1.6 4.8 0.00 0.66 0.46 87 1012.4
20260507130020 10 268 0.0 3.2 0.00 0.66 0.46 91 1012.5
20260507124522 10 305 1.6 6.4 0.00 0.66 0.46 93 1012.5
20260507123018 10 329 0.0 8.0 0.00 0.66 0.46 94 1012.5
20260507121504 10 314 1.6 4.8 0.00 0.66 0.46 94 1012.3
20260507120005 10 247 0.0 0.0 0.00 0.66 0.46 95 1012.2
20260507114504 10 247 0.0 0.0 0.00 0.66 0.46 94 1012.2
20260507113004 10 232 0.0 3.2 0.00 0.66 0.46 94 1012.2
20260507111506 10 266 0.0 3.2 0.00 0.66 0.46 94 1012.0
20260507110004 10 266 0.0 3.2 0.00 0.66 0.46 94 1011.8
20260507104506 10 227 0.0 1.6 0.00 0.66 0.46 94 1011.6
20260507103004 10 359 0.0 3.2 0.00 0.66 0.46 94 1011.4
20260507101503 10 359 0.0 0.0 0.00 0.66 0.46 94 1011.3
20260507100009 9 359 0.0 0.0 0.03 0.66 0.46 94 1011.2
20260507094504 9 359 0.0 0.0 0.03 0.66 0.46 94 1011.2
20260507093005 9 359 0.0 0.0 0.03 0.66 0.46 94 1011.2
20260507091505 9 359 0.0 0.0 0.03 0.66 0.46 94 1011.0
20260507090007 9 359 0.0 3.2 0.00 0.64 0.43 93 1010.7
20260507084514 9 6 0.0 3.2 0.00 0.64 0.43 93 1010.9
20260507083017 10 34 0.0 3.2 0.00 0.64 0.43 93 1010.9
20260507081508 10 340 0.0 3.2 0.00 0.64 0.43 93 1010.7
20260507080009 10 13 0.0 3.2 0.00 0.64 0.43 93 1011.1
20260507074510 10 345 0.0 3.2 0.00 0.64 0.43 93 1010.9
20260507073008 10 249 1.6 3.2 0.00 0.64 0.43 93 1011.1
20260507071516 10 169 0.0 3.2 0.00 0.64 0.43 93 1011.2
20260507070019 10 243 0.0 6.4 0.03 0.64 0.43 93 1011.5
20260507064512 10 272 0.0 3.2 0.05 0.64 0.43 92 1011.2
20260507063014 10 266 0.0 3.2 0.36 0.64 0.43 92 1010.8
20260507061513 11 129 0.0 3.2 0.43 0.64 0.43 92 1010.8
20260507060014 11 335 0.0 3.2 0.41 0.61 0.41 91 1011.2
20260507054512 12 62 0.0 3.2 0.38 0.58 0.38 90 1010.7
20260507053012 12 326 1.6 8.0 0.08 0.28 0.08 89 1011.1
20260507051516 12 354 1.6 4.8 0.00 0.20 0.00 88 1009.8
20260507050036 12 319 0.0 3.2 0.00 0.20 0.00 88 1009.9
20260507044522 13 192 0.0 4.8 0.00 0.20 0.00 87 1009.9
20260507043019 13 271 0.0 9.7 0.03 0.20 0.00 87 1009.5
20260507041518 14 318 1.6 11.3 0.03 0.20 0.00 87 1009.7
20260507040022 16 318 1.6 8.0 0.03 0.20 0.00 89 1009.5
20260507034516 16 299 0.0 3.2 0.03 0.20 0.20 88 1009.4
20260507033029 16 278 0.0 6.4 0.00 0.18 0.18 85 1009.4
20260507031510 17 304 0.0 4.8 0.00 0.18 0.18 84 1009.3
20260507030007 17 359 0.0 6.4 0.00 0.18 0.18 86 1009.0
20260507024510 17 271 1.6 9.7 0.00 0.18 0.18 86 1009.3
20260507023006 18 283 1.6 3.2 0.00 0.18 0.18 86 1009.2
20260507021502 18 207 0.0 3.2 0.00 0.18 0.18 84 1009.0
20260507020025 18 220 0.0 3.2 0.00 0.18 0.18 84 1009.1
20260507014523 18 198 0.0 4.8 0.00 0.18 0.18 83 1009.1
20260507013017 18 228 0.0 4.8 0.00 0.18 0.18 84 1008.9
20260507011520 18 271 0.0 3.2 0.00 0.18 0.18 84 1008.8
20260507010026 18 256 0.0 3.2 0.00 0.18 0.18 84 1008.9
20260507004509 18 243 0.0 3.2 0.00 0.18 0.18 84 1009.1
20260507003007 18 240 0.0 1.6 0.00 0.18 0.18 83 1008.6
20260507001524 18 248 0.0 8.0 0.00 0.18 0.18 82 1008.4
20260507000027 18 238 0.0 4.8 0.00 0.18 0.18 81 1008.3
20260506234520 19 164 0.0 3.2 0.00 0.18 0.18 80 1008.3
20260506233020 19 207 0.0 3.2 0.00 0.18 0.18 80 1008.3
20260506231519 19 212 0.0 4.8 0.00 0.18 0.18 79 1008.1
20260506230013 19 240 0.0 6.4 0.00 0.18 0.18 78 1008.2
20260506224514 20 283 0.0 4.8 0.00 0.18 0.18 78 1008.1
20260506223015 20 262 0.0 12.9 0.00 0.18 0.18 77 1008.2
20260506221526 20 224 0.0 6.4 0.00 0.18 0.18 77 1007.9
20260506220030 20 167 1.6 6.4 0.00 0.18 0.18 78 1008.0
20260506214524 20 231 0.0 6.4 0.00 0.18 0.18 77 1007.8
20260506213030 20 170 3.2 8.0 0.00 0.18 0.18 77 1007.9
20260506211528 20 183 3.2 9.7 0.00 0.18 0.18 76 1007.7
20260506210015 19 227 3.2 8.0 0.00 0.18 0.18 78 1007.7
20260506204514 19 315 0.0 12.9 0.00 0.18 0.18 79 1007.8
20260506203030 18 264 1.6 14.5 0.00 0.18 0.18 80 1007.7
20260506201533 18 250 1.6 6.4 0.00 0.18 0.18 80 1007.5
20260506200028 18 199 1.6 11.3 0.00 0.18 0.18 81 1007.8
20260506194525 18 244 0.0 8.0 0.00 0.18 0.18 82 1008.0
20260506193022 18 223 3.2 8.0 0.00 0.18 0.18 82 1008.1
20260506191522 17 174 0.0 12.9 0.00 0.18 0.18 83 1008.3
20260506190019 17 191 1.6 12.9 0.00 0.18 0.18 83 1008.4
20260506184519 17 170 0.0 16.1 0.00 0.18 0.18 84 1008.3
20260506183026 17 165 3.2 11.3 0.00 0.18 0.18 85 1008.6
20260506181519 17 233 0.0 6.4 0.00 0.18 0.18 86 1008.6
20260506180009 17 151 0.0 9.7 0.00 0.18 0.18 87 1008.9
20260506174507 16 176 0.0 8.0 0.00 0.18 0.18 87 1008.9
20260506173007 16 144 3.2 11.3 0.00 0.18 0.18 87 1008.9
20260506171538 16 209 1.6 12.9 0.03 0.18 0.18 88 1009.1
20260506170024 16 340 1.6 12.9 0.08 0.18 0.18 88 1009.1
20260506164522 16 176 1.6 8.0 0.13 0.18 0.18 89 1009.2
20260506163018 17 79 1.6 8.0 0.15 0.18 0.18 89 1009.3
20260506161514 16 262 0.0 9.7 0.15 0.15 0.15 89 1009.7
20260506160014 16 254 0.0 4.8 0.10 0.10 0.10 88 1010.3
20260506154508 17 178 0.0 3.2 0.05 0.05 0.05 85 1010.3
20260506153005 17 234 1.6 6.4 0.03 0.03 0.03 82 1010.4
20260506151533 18 223 3.2 12.9 0.00 0.00 0.00 77 1010.2